Regional Weather Roundup
Issued by NWS Green Bay, WI

Home | Current Version | Previous Version | Graphics & Text | Print | Product List | Glossary Off
Versions: 1 2 3 4 5 6 7 8 9 10 11 12 13 14 15 16 17 18 19 20 21 22 23 24 25 26 27 28 29 30 31 32 33 34 35 36 37 38 39 40 41 42 43 44 45 46 47 48 49 50

000
ASUS43 KGRB 160111
RWRGRB

NORTH-CENTRAL AND NORTHEAST WISCONSIN REGIONAL WEATHER ROUNDUP
NATIONAL WEATHER SERVICE GREEN BAY WI
700 PM CST MON JAN 15 2018

WIZ005-009-010>012-018-019-160200-
NORTH CENTRAL WISCONSIN

CITY           SKY/WX    TMP DP  RH WIND       PRES   REMARKS
IRONWOOD       FLURRIES   9   7  92 NE5       30.37R WCI   1
MANITOWISH WTR LGT SNOW  13  13 100 CALM      30.30R
ARBOR VITAE    MOCLDY    17  14  90 NE3       30.29R
EAGLE RIVER    FLURRIES  17  12  81 NE8       30.28R WCI   6
LAND O LAKES   LGT SNOW  18  14  87 E8        30.31R VSB 3/4 WCI   7
RHINELANDER    CLOUDY    18  15  88 NE6       30.28R WCI  10
PHILLIPS       CLOUDY    14  12  92 N7        30.31R WCI   4
ANTIGO         CLOUDY    14  10  85 NE7       30.28R WCI   4
TOMAHAWK       CLOUDY    18  15  86 CALM      30.30R
MERRILL        CLOUDY    18  14  83 NE6       30.30R WCI  10
$$

WIZ013-073-160200-
NORTHEAST WISCONSIN

CITY           SKY/WX    TMP DP  RH WIND       PRES   REMARKS
IRON MOUNTAIN  CLOUDY    15  11  83 NE6       30.32R WCI   6
MARINETTE      FLURRIES  19  16  88 NE10      30.34R WCI   7
OCONTO         CLOUDY    19  16  91 N6        30.32R
$$

WIZ017-030-035>037-045-160200-
CENTRAL WISCONSIN

CITY           SKY/WX    TMP DP  RH WIND       PRES   REMARKS
MEDFORD        LGT SNOW  17  14  89 N7        30.28R WCI   7
WAUSAU         LGT SNOW  19  14  81 NE8       30.27R WCI   9
MOSINEE        LGT SNOW  18  18 100 NE7       30.28  WCI   8
MARSHFIELD     LGT SNOW  17  14  88 NW9       30.27R FOG     WCI   6
WISC RAPIDS    LGT SNOW  19  15  84 N6        30.30R FOG
STEVENS POINT  MIX PCPN  17  15  95 NE6       30.29R WCI   8
WAUPACA        CLOUDY    21  17  81 NE5       30.30R
SHAWANO        CLOUDY    21  16  83 NE10      30.31R WCI   9
CLINTONVILLE   CLOUDY    19  16  86 NE9       30.30R WCI   9
WAUTOMA        LGT SNOW  21  18  88 NE9       30.28R FOG
$$

WIZ038-039-048-051-160200-
FOX VALLEY

CITY           SKY/WX    TMP DP  RH WIND       PRES   REMARKS
NWS GREEN BAY  CLOUDY    19  15  84 N13       30.30R WCI   6
APPLETON       CLOUDY    19  14  79 NE13      30.25R WCI   7
OSHKOSH        CLOUDY    19  16  88 NE13      30.26R WCI   6
FOND DU LAC    CLOUDY    21  16  81 NE10      30.26R WCI  10
$$

WIZ022-050-052-160200-
EAST CENTRAL WISCONSIN

CITY           SKY/WX    TMP DP  RH WIND       PRES   REMARKS
EPHRAIM        LGT SNOW  18  16  92 N10       30.30R WCI   6
WASHINGTON ISL CLOUDY    21  17  87 NE9       30.32R
STURGEON BAY   LGT SNOW  19  17  92 N7        30.31R FOG     WCI  10
MANITOWOC      FLURRIES  19  17  92 N6        30.28R
SHEBOYGAN      LGT SNOW  21  19  92 NE7       30.26R FOG
$$

LMZ563-521-522-541>543-160200-
LAKESHORE

STATION/POSITION TIME  TEMP    WIND        PRES    VSBY  WAVE
                       AIR SEA DIR/SP/G                  HT/PER
                 (UTC) (F)     (DEG/KT/KT) (MB)    (MI)  (FT/S)
SHEBOYGAN LKSHOR 0100   22      80/ 13/ 14 1025.8R
KEWAUNEE LKSHORE 0048   23      60/  7/ 10 1024.7R
NORTHPORT PIER   0040   22        CALM     1026.4R
MENOMINEE LKSHOR 0048   18      20/ 15/ 19 1026.5R
$$




USA.gov is the U.S. government's official web portal to all federal, state and local government web resources and services.